Location: Tamazert
(32.6352°N, 5.2072°W)
Time: 07:06:23
(UTC+00:00)

Tiros 1 despin weight - Pass Details

Date: 08 October 2022
Orbit: 590 x 637 km, 48.2° (Epoch: 28 November)

Event Time Altitude Azimuth Distance (km) Brightness Sun altitude
Rises 14:43:18 0° 266° (W) 2,818 ? 36.6°
Reaches altitude 10° 14:45:57 10° 280° (W) 1,924 ? 36.2°
Maximum altitude 14:49:30 23° 334° (NNW) 1,268 ? 35.6°
Drops below altitude 10° 14:53:07 10° 28° (NNE) 1,949 ? 35.0°
Sets 14:55:49 0° 43° (NE) 2,864 ? 34.5°
